Location: Taukkyan
(23.1052°N, 94.0030°E)
Time: 11:46:10
(UTC+00:00)

USA 215 - Pass Details

Date: 06 July 2020
Orbit: 1102 x 1106 km, 123.0° (Epoch: 08 August)

Event Time Altitude Azimuth Distance (km) Brightness Sun altitude
Rises 13:14:39 0° 51° (NE) 3,914 5.9 -9.2°
Reaches altitude 10° 13:17:21 10° 59° (ENE) 2,955 5.2 -9.7°
Maximum altitude 13:23:18 37° 125° (SE) 1,627 3.7 -10.9°
Drops below altitude 10° 13:29:14 10° 191° (S) 2,949 5.3 -12.1°
Sets 13:31:54 0° 199° (SSW) 3,905 6.0 -12.6°
